Location: Reeth
(54.3881°N, 1.9432°W)
Time: 17:36:24
(UTC+00:00)

N. Korean satellite - Visible Passes

Search period start: 21 February 2019 00:00
Search period end: 03 March 2019 00:00
Orbit: 456 x 510 km, 97.2° (Epoch: 20 February)

Date Brightness Start Highest point End Pass type
(mag) Time Alt. Az. Time Alt. Az. Time Alt. Az.
21 Feb 9.2 05:43:41 10° NE 05:46:32 23° E 05:49:21 10° SSE visible
21 Feb 8.8 17:58:57 10° SSW 18:02:17 33° W 18:05:34 10° NNW visible
22 Feb 10.0 05:19:46 10° ENE 05:21:33 13° E 05:23:20 10° ESE visible
23 Feb 6.9 06:27:12 10° NNE 06:30:40 68° ESE 06:34:05 10° S visible
23 Feb 10.3 18:44:57 10° WSW 18:46:35 13° W 18:48:13 10° WNW visible
24 Feb 8.3 06:02:35 10° NNE 06:05:50 36° E 06:09:02 10° SSE visible
24 Feb 9.7 18:18:46 10° SW 18:21:36 21° W 18:24:24 10° NW visible
25 Feb 9.5 05:38:15 10° NE 05:40:55 20° E 05:43:33 10° SE visible
26 Feb 10.2 05:14:33 10° ENE 05:15:54 12° E 05:17:14 10° ESE visible
27 Feb 7.2 06:21:37 10° NNE 06:25:03 59° E 06:28:27 10° S visible
27 Feb 10.2 18:39:00 10° WSW 18:40:56 14° W 18:42:52 10° NW visible
28 Feb 8.6 05:57:03 10° NNE 06:00:11 31° E 06:03:18 10° SSE visible
28 Feb 9.5 18:13:02 10° SSW 18:15:58 23° W 18:18:52 10° NW visible
01 Mar 9.7 05:32:47 10° NE 05:35:14 18° E 05:37:41 10° SE visible
02 Mar 10.4 05:09:35 10° ENE 05:10:12 10° E 05:10:50 10° E visible
